Time_in_sec,Mx,My,Mz
1314365325.46548772,0.46089616,0.06140101,-0.41496339
1314365325.51306581,0.45954409,0.05803574,-0.41257349
1314365325.56546545,0.45977640,0.05915062,-0.40863204
1314365325.61743760,0.46035519,0.05880323,-0.41280347
1314365325.66548729,0.46044371,0.05814216,-0.41143593
1314365325.71346688,0.45896947,0.06036467,-0.41262466
1314365325.76548767,0.46102938,0.05784727,-0.40868479
1314365325.81661034,0.45788190,0.05910987,-0.41471463
1314365325.86855817,0.46015540,0.06046622,-0.41133463
1314365325.91662121,0.46183529,0.06072692,-0.41327468
1314365325.96504664,0.45989594,0.05755303,-0.41594270
1314365326.01346326,0.45915210,0.05950291,-0.41654384
1314365326.06560612,0.46063164,0.05825996,-0.41061145
1314365326.11347723,0.45882568,0.05858871,-0.41519856
1314365326.16448307,0.46064094,0.05856583,-0.41495678
1314365326.21301246,0.46166185,0.05880282,-0.41408461
1314365326.26547837,0.46230024,0.06200104,-0.41230705
1314365326.31300783,0.45971170,0.05831126,-0.41433036
1314365326.36549926,0.46177745,0.05890949,-0.41217837
1314365326.41289949,0.45934054,0.05779211,-0.41366941
1314365326.46559572,0.45938885,0.05664845,-0.41528675
1314365326.51346731,0.46039158,0.05737922,-0.41238332
1314365326.56487465,0.46091738,0.05802256,-0.41276476
1314365326.61362529,0.46139750,0.06125111,-0.41357565
1314365326.66546416,0.46127084,0.05764336,-0.41382715
1314365326.71760249,0.46229541,0.06022345,-0.41487283
1314365326.76466465,0.46038753,0.05995644,-0.41213164
1314365326.81287503,0.45856550,0.05905386,-0.41033077
1314365326.86458921,0.46269214,0.05993978,-0.41294724
1314365326.91346908,0.45918125,0.05751499,-0.41177627
1314365326.96460605,0.46255204,0.05903986,-0.41308433
1314365327.01779866,0.46014693,0.05737610,-0.41185462
1314365327.06549859,0.46172377,0.05907360,-0.41530466
1314365327.11348867,0.46142611,0.06006122,-0.41098598
1314365327.16550756,0.46023133,0.05826169,-0.41036332
1314365327.21345925,0.46157596,0.05694077,-0.40891752
1314365327.26460099,0.45914954,0.05762489,-0.41001439
1314365327.31351018,0.46085763,0.05955488,-0.41128677
1314365327.36452866,0.46143487,0.05720045,-0.40892771
1314365327.41362071,0.45877156,0.05764733,-0.41166544
1314365327.46548724,0.46185699,0.05698691,-0.41338077
1314365327.51746321,0.46165511,0.05890794,-0.41191402
1314365327.56471062,0.45953625,0.05620873,-0.41065976
1314365327.61350489,0.45836452,0.05775416,-0.40924674
1314365327.66466999,0.46048382,0.05759418,-0.40857896
1314365327.71346712,0.45973253,0.05632494,-0.40969905
1314365327.76454854,0.46180606,0.05771960,-0.40958866
1314365327.81361723,0.45999914,0.05774089,-0.40969425
1314365327.86557198,0.46237198,0.05928202,-0.41146782
1314365327.91361475,0.45980084,0.05891330,-0.41052911
1314365327.96497607,0.46033338,0.05798448,-0.40872642
1314365328.01346779,0.46232307,0.05872610,-0.40780160
1314365328.06484103,0.45971701,0.05679320,-0.40535995
1314365328.11360168,0.46011007,0.05916168,-0.40997002
1314365328.16560793,0.46179411,0.05743925,-0.40755120
1314365328.21362138,0.46137553,0.05734065,-0.40988240
1314365328.26548839,0.46127498,0.05566023,-0.40946829
1314365328.31383514,0.46115336,0.06044996,-0.41086909
1314365328.36458945,0.46204814,0.05731174,-0.40794262
1314365328.41283751,0.45862269,0.05711057,-0.40963402
1314365328.46560597,0.46067214,0.05528929,-0.41031507
1314365328.51357293,0.46001321,0.05732673,-0.40724704
1314365328.56482387,0.46136001,0.05780891,-0.40554330
1314365328.61360049,0.46099713,0.05875521,-0.40910077
1314365328.66547418,0.46460423,0.05925422,-0.41120166
1314365328.71749425,0.46079767,0.05549787,-0.40596578
1314365328.76461530,0.46101630,0.05563480,-0.40690419
1314365328.81350636,0.46112472,0.05767518,-0.40487731
1314365328.86560106,0.46189195,0.05561699,-0.40617430
1314365328.91349196,0.45918599,0.05576439,-0.40511164
1314365328.96561599,0.46233293,0.05676688,-0.40561438
1314365329.01362252,0.45997110,0.05769626,-0.40562344
1314365329.06548667,0.46091965,0.05792212,-0.40366954
1314365329.11424851,0.46096656,0.06079723,-0.40708202
1314365329.16493225,0.46134180,0.05727211,-0.40363997
1314365329.21747947,0.46014187,0.05714825,-0.40289462
1314365329.26561284,0.46185464,0.05776412,-0.40198496
1314365329.31345749,0.45945683,0.05725835,-0.40049216
1314365329.36468577,0.46212894,0.05791537,-0.40427762
1314365329.41658974,0.45982853,0.05844652,-0.40332994
1314365329.46947384,0.46160895,0.06038765,-0.40568405
1314365329.51360178,0.45986849,0.05480683,-0.40085673
1314365329.56467605,0.46084988,0.05685491,-0.40040782
1314365329.61277437,0.46074992,0.05687407,-0.40204263
1314365329.66460419,0.46123412,0.05708892,-0.39862263
1314365329.71347332,0.46012008,0.05882711,-0.40304434
1314365329.76459146,0.46169639,0.05735798,-0.40009078
1314365329.81291223,0.45921367,0.05676466,-0.40226716
1314365329.86545825,0.46107432,0.05907689,-0.40326205
1314365329.91305113,0.46152312,0.05955616,-0.40038905
1314365329.96476626,0.45933864,0.05674071,-0.40022364
1314365330.01349282,0.45948291,0.05815511,-0.39995450
1314365330.06560278,0.46018514,0.05724378,-0.39990661
1314365330.11383772,0.46117729,0.05660952,-0.40187997
1314365330.16450572,0.46008572,0.05749547,-0.39923564
1314365330.21660423,0.46056721,0.05567469,-0.39837933
1314365330.26550031,0.46263561,0.06021208,-0.40250093
1314365330.31363440,0.45938087,0.05696526,-0.39723668
1314365330.36560249,0.46182719,0.06044964,-0.39983514
1314365330.41674972,0.45856518,0.05854246,-0.39906082
1314365330.46560335,0.46013355,0.05568279,-0.39867616
1314365330.51345539,0.45821109,0.05765856,-0.40043211
1314365330.56561422,0.46113834,0.05762257,-0.40012535
1314365330.61361289,0.45946106,0.05880341,-0.40023214
1314365330.67092061,0.46064791,0.05671480,-0.39919692
1314365330.71758127,0.46060580,0.05855139,-0.40192804
1314365330.76487708,0.46069694,0.05786481,-0.39825264
1314365330.81349754,0.45777279,0.05751373,-0.39855626
1314365330.86459374,0.45950645,0.05967147,-0.39711416
1314365330.91272998,0.45938140,0.05763428,-0.39941353
1314365330.96474004,0.45882231,0.05802789,-0.39944911
1314365331.01360989,0.45793009,0.06011003,-0.40019563
1314365331.06548905,0.46162930,0.06022993,-0.40310270
1314365331.11367583,0.45939967,0.05773460,-0.39683422
1314365331.16565919,0.45926011,0.05750370,-0.39914814
1314365331.21275544,0.45860776,0.05634432,-0.39863443
1314365331.26560092,0.46055421,0.05552335,-0.39634287
1314365331.31348062,0.45655677,0.05909264,-0.40013230
1314365331.36551213,0.45970419,0.05826652,-0.39858505
1314365331.41280961,0.45655206,0.05790915,-0.39808753
1314365331.46549058,0.45977339,0.05763416,-0.39979786
1314365331.51365805,0.45825902,0.05790702,-0.39961678
1314365331.56464791,0.45926014,0.05853427,-0.39902020
1314365331.61271119,0.46005151,0.06072259,-0.39939785
1314365331.66484666,0.45924190,0.05696690,-0.39724481
1314365331.71346331,0.45969793,0.05801008,-0.39871922
1314365331.76562548,0.45995715,0.05723747,-0.39910543
1314365331.81767082,0.45855269,0.05906014,-0.39920118
1314365331.86548090,0.46100357,0.05916926,-0.39987347
1314365331.91322255,0.45934030,0.05787480,-0.39778891
1314365331.96445465,0.45856407,0.05764091,-0.39918977
1314365332.01345682,0.45923099,0.05905515,-0.39943308
1314365332.06623006,0.45970109,0.05718654,-0.39423349
1314365332.11347485,0.45931375,0.05880664,-0.40037650
1314365332.16546345,0.45965934,0.05660043,-0.39952520
1314365332.21976423,0.45910183,0.05856461,-0.40160865
1314365332.26548171,0.46068341,0.05851151,-0.39839408
1314365332.31272483,0.46113077,0.06197898,-0.39744413
1314365332.36548162,0.45985508,0.05751467,-0.40074232
1314365332.42474771,0.45829701,0.05658651,-0.39688984
1314365332.46566415,0.45997021,0.05944994,-0.40088603
1314365332.51345491,0.45645717,0.05522206,-0.39997301
1314365332.56562018,0.46168604,0.05864818,-0.40010118
1314365332.61651206,0.46005875,0.05981945,-0.39939058
1314365332.66584754,0.46099219,0.06058849,-0.39988491
1314365332.71649790,0.46001804,0.05763727,-0.40032655
1314365332.76465607,0.45933923,0.05697324,-0.39791787
1314365332.81268334,0.45942724,0.05814078,-0.39860025
1314365332.86867476,0.45888227,0.05915080,-0.39606073
1314365332.91343951,0.45955789,0.05814074,-0.39872837
1314365332.96481919,0.45915240,0.05878756,-0.39848545
1314365333.01347876,0.46080998,0.06005812,-0.39839840
1314365333.06548858,0.45998955,0.05795420,-0.39395103
1314365333.11279845,0.45998895,0.05918871,-0.40061149
1314365333.16479635,0.45888895,0.05801512,-0.39835924
1314365333.21350884,0.45812997,0.05801057,-0.39718184
1314365333.26480126,0.45918465,0.05787963,-0.39806950
1314365333.31265664,0.45708668,0.05672229,-0.39628276
1314365333.36450171,0.46025923,0.06045014,-0.39829779
1314365333.41663361,0.45833048,0.05967183,-0.39596114
1314365333.46547699,0.46297413,0.06156424,-0.39679050
1314365333.51361752,0.45664373,0.05789158,-0.39658895
1314365333.56462932,0.45968494,0.05785875,-0.39668277
1314365333.62473416,0.45952514,0.05837966,-0.39696753
1314365333.66551065,0.45749956,0.05826403,-0.39613464
1314365333.71265316,0.45773172,0.05775425,-0.39693165
1314365333.76552057,0.45977506,0.05730119,-0.39300841
1314365333.81367636,0.45756885,0.05969280,-0.39709160
1314365333.86555028,0.45990530,0.06016032,-0.39505854
1314365333.91648936,0.46180907,0.06197399,-0.39767599
1314365333.96448684,0.45912477,0.05735081,-0.39684734
1314365334.01751375,0.45926899,0.05773464,-0.39670610
1314365334.06465626,0.45914361,0.05915071,-0.39631695
1314365334.11349559,0.45939878,0.05948828,-0.39209682
1314365334.16451740,0.45981929,0.05770418,-0.39450198
1314365334.21267843,0.45754588,0.05840898,-0.39762616
1314365334.26546311,0.46205375,0.06197710,-0.39820468
1314365334.31764054,0.45847782,0.05966860,-0.39581677
1314365334.36467981,0.46044666,0.05989892,-0.39529645
1314365334.41263366,0.45968232,0.05641720,-0.39463595
1314365334.46562576,0.45930496,0.05770275,-0.39385331
1314365334.51261020,0.45918319,0.05940077,-0.39563787
1314365334.56554341,0.45866987,0.05823975,-0.39511606
1314365334.61268091,0.45909932,0.05771716,-0.39495128
1314365334.66545916,0.46046910,0.05948316,-0.39271301
1314365334.71320629,0.45865685,0.05955546,-0.39743429
1314365334.76466155,0.45892912,0.05849771,-0.39537436
1314365334.80546665,0.45873588,0.05696387,-0.39645988
1314365334.86466360,0.46079525,0.05671156,-0.39905256
1314365334.91346502,0.45913616,0.05593158,-0.39683592
1314365334.96455812,0.45944235,0.05759759,-0.39615202
1314365335.01356506,0.45880058,0.05927028,-0.39511624
1314365335.06550813,0.46293044,0.06286083,-0.39734584
1314365335.10565758,0.45745274,0.05891712,-0.39682102
1314365335.16465807,0.45971775,0.05865040,-0.39831570
1314365335.22547007,0.45928150,0.05824753,-0.39643779
1314365335.26463318,0.45817572,0.05645594,-0.39662445
1314365335.31346369,0.45887804,0.05760574,-0.39632073
1314365335.36468220,0.46072620,0.06043564,-0.39745602
1314365335.41265225,0.45630217,0.05752057,-0.39769197
1314365335.46553826,0.45958140,0.05862653,-0.39601597
1314365335.51662707,0.46029881,0.06070019,-0.39761868
1314365335.56467390,0.45949650,0.05707193,-0.39533046
1314365335.61657071,0.45871818,0.05709609,-0.39673340
1314365335.66469669,0.46037054,0.05798117,-0.39677945
1314365335.71345496,0.45850953,0.05955870,-0.39757866
1314365335.76465774,0.45945176,0.05849754,-0.39588681
1314365335.81263685,0.46012694,0.05784904,-0.39624971
1314365335.85755515,0.46092093,0.06147891,-0.39867419
1314365335.91263199,0.45940524,0.05569737,-0.39926168
1314365335.96564722,0.45914564,0.05786210,-0.39644280
1314365336.00547194,0.45851782,0.05852653,-0.39757034
1314365336.06464696,0.45913151,0.05724570,-0.39901793
1314365336.11344409,0.46119416,0.05926156,-0.39674112
1314365336.16566396,0.45895767,0.05774430,-0.39726728
1314365336.21262980,0.45973080,0.05836525,-0.39586952
1314365336.25746083,0.45840532,0.05803280,-0.39947346
1314365336.31514478,0.45912099,0.05544420,-0.39941210
1314365336.35662413,0.45913517,0.05855822,-0.40106371
1314365336.40555239,0.45984888,0.05828880,-0.40074858
1314365336.46462584,0.45824543,0.05649258,-0.40001407
1314365336.51350093,0.45940128,0.05783811,-0.39452741
1314365336.56564021,0.45848349,0.05969251,-0.39798841
1314365336.61364341,0.45831114,0.05866997,-0.39866939
1314365336.65980005,0.45967829,0.06149205,-0.39861104
1314365336.71407914,0.45778894,0.05830857,-0.40046167
1314365336.76571298,0.45586231,0.05830280,-0.39799502
1314365336.82553482,0.45793688,0.05956844,-0.39788362
1314365336.86461997,0.45906967,0.05903606,-0.39754203
1314365336.91351962,0.45732936,0.05904458,-0.39655772
1314365336.95681024,0.45917732,0.05672163,-0.39833260
1314365337.01409626,0.45640579,0.05778336,-0.39823085
1314365337.05750155,0.45828873,0.05761868,-0.39689815
1314365337.11607671,0.45931154,0.05597297,-0.40076235
1314365337.15656066,0.45885044,0.05866661,-0.39890936
1314365337.21253943,0.45872647,0.05753097,-0.40107977
1314365337.26557827,0.45816380,0.05867320,-0.39881372
1314365337.31346536,0.45922008,0.05864577,-0.39739454
1314365337.37254548,0.45898479,0.05851204,-0.39672858
1314365337.40455985,0.45881972,0.05908397,-0.40162906
1314365337.46565509,0.45810953,0.05610715,-0.40001905
1314365337.51251984,0.45782021,0.05856023,-0.39991882
1314365337.55654955,0.45762807,0.05792794,-0.40087539
1314365337.61354828,0.45965824,0.05716593,-0.40400884
1314365337.65650320,0.45855001,0.05805508,-0.40163699
1314365337.71348047,0.45867026,0.05831467,-0.40190342
1314365337.76453638,0.45878431,0.05788135,-0.39782137
1314365337.81263185,0.45976666,0.05773927,-0.39762726
1314365337.86550140,0.45921025,0.06060499,-0.39958176
1314365337.90563273,0.45874470,0.05909834,-0.40285516
1314365337.96461940,0.45954788,0.05597768,-0.40142727
1314365338.01358628,0.45827931,0.05671873,-0.39716333
1314365338.06464887,0.45981401,0.05775519,-0.39911771
1314365338.11350942,0.45918468,0.05891020,-0.39794156
1314365338.15657520,0.45929244,0.05865690,-0.39847630
1314365338.21250463,0.45952079,0.05624051,-0.40183806
1314365338.26556563,0.46202394,0.06020430,-0.40117916
1314365338.31350446,0.45977914,0.05722158,-0.39748687
1314365338.36457610,0.45830232,0.06050017,-0.40085557
1314365338.41253734,0.46026480,0.05591529,-0.39649847
1314365338.46468639,0.45860723,0.05714235,-0.40081230
1314365338.51349282,0.45803982,0.05753756,-0.40098414
1314365338.56492829,0.45867771,0.06006676,-0.39702976
1314365338.60462928,0.46054074,0.05866767,-0.40071109
1314365338.66586399,0.45954001,0.05561772,-0.40386826
1314365338.71257758,0.46105251,0.06075575,-0.40341181
1314365338.76452470,0.45884043,0.05650355,-0.40160826
1314365338.81250262,0.45882028,0.05931650,-0.39932325
1314365338.86550522,0.46052980,0.05972535,-0.40302727
1314365338.90557051,0.45991650,0.05711643,-0.39978558
1314365338.96552300,0.45820004,0.05562452,-0.40313205
1314365339.01393270,0.45849639,0.05778271,-0.40028068
1314365339.06550717,0.46022058,0.05947697,-0.40358636
1314365339.11351204,0.45789978,0.05766822,-0.40099329
1314365339.16448355,0.45768115,0.05753129,-0.40005484
1314365339.20950127,0.45736781,0.05882957,-0.40049019
1314365339.26553226,0.45710889,0.05511834,-0.40292040
1314365339.31349421,0.46003729,0.05804504,-0.40222883
1314365339.36407375,0.46088389,0.06060925,-0.40165594
1314365339.41347504,0.46000236,0.05648087,-0.40072590
1314365339.46546698,0.45825276,0.05911762,-0.40410563
1314365339.51290870,0.46075511,0.05872659,-0.40626422
1314365339.56456637,0.45827454,0.05743875,-0.40395588
1314365339.60557699,0.45919234,0.05808198,-0.40472165
1314365339.66551685,0.46088564,0.05563484,-0.40677610
1314365339.71346450,0.46048650,0.05859925,-0.40614319
1314365339.75649834,0.45806530,0.05966884,-0.40710694
1314365339.81254601,0.45956191,0.05849762,-0.40768945
1314365339.86549234,0.46043816,0.06120996,-0.40888053
1314365339.91357756,0.45904130,0.05720917,-0.40730283
1314365339.96451259,0.45996231,0.05805942,-0.40345493
1314365340.02553391,0.46128502,0.05782328,-0.40676939
1314365340.06548405,0.46159431,0.05910223,-0.40608236
1314365340.11346674,0.46017307,0.05783638,-0.40683436
1314365340.15648580,0.45989451,0.05760712,-0.40915638
1314365340.21250749,0.46212676,0.05757932,-0.40889022
1314365340.26544619,0.45992687,0.05979089,-0.40835664
1314365340.31257272,0.46212110,0.06005303,-0.41094536
1314365340.36457133,0.46087170,0.05914072,-0.40883955
1314365340.41373944,0.46195343,0.05874694,-0.40931639
1314365340.46453285,0.45824844,0.05800905,-0.40884823
1314365340.51345062,0.46148440,0.05755242,-0.40580556
1314365340.56500268,0.45900914,0.06017824,-0.40746295
1314365340.61350942,0.46073690,0.05965684,-0.40871558
1314365340.66548228,0.46099719,0.05978578,-0.40897286
1314365340.71342349,0.45967793,0.05721216,-0.40821588
1314365340.76620054,0.46045732,0.05808955,-0.40668395
1314365340.81743121,0.46040738,0.05912970,-0.40737346
1314365340.86545253,0.46101072,0.05767203,-0.40447673
1314365340.91345859,0.46024230,0.05823458,-0.40791923
1314365340.96548772,0.46102318,0.05715435,-0.40433633
1314365341.01250482,0.46087793,0.05689954,-0.40447861
1314365341.06551576,0.46106908,0.06015847,-0.40774986
1314365341.11293435,0.46243921,0.05950178,-0.40807217
1314365341.16453481,0.46003723,0.05848153,-0.40671143
1314365341.21341014,0.46081242,0.05884443,-0.40531161
1314365341.26552176,0.46030372,0.05783634,-0.40696248
1314365341.31345201,0.46044692,0.05688214,-0.40246758
1314365341.36546612,0.45993060,0.06066694,-0.40591982
1314365341.41350222,0.46222362,0.05794723,-0.40725854
1314365341.46548247,0.46204564,0.06042896,-0.40986672
1314365341.51544046,0.45932606,0.05666430,-0.40497458
1314365341.56245446,0.45982164,0.05692697,-0.40589780
1314365341.62550092,0.46205965,0.05795365,-0.40767536
1314365341.66456342,0.45905536,0.05679500,-0.40485561
1314365341.71346474,0.46128136,0.05797781,-0.40907830
1314365341.76550794,0.45949474,0.05784138,-0.40660250
1314365341.81353331,0.46150056,0.05834727,-0.40771094
1314365341.86551428,0.46005702,0.06058889,-0.41066262
1314365341.91287827,0.46135637,0.05899401,-0.40772426
1314365341.96555877,0.45920745,0.05900584,-0.40662807
1314365342.01747561,0.45917821,0.05746557,-0.40729678
1314365342.06662631,0.46085924,0.05965840,-0.40897992
1314365342.11346579,0.46105334,0.05797150,-0.40827712
1314365342.16464210,0.45817456,0.05892497,-0.40994540
1314365342.21748996,0.46115378,0.05759079,-0.40894708
1314365342.26548648,0.46394956,0.06283671,-0.40787363
1314365342.31346536,0.45995754,0.05731240,-0.40589279
1314365342.36451411,0.45887798,0.06200689,-0.40938479
1314365342.41345716,0.46087843,0.05756855,-0.40665543
1314365342.46512961,0.45709500,0.05965479,-0.40485591
1314365342.51352334,0.46081236,0.05781386,-0.40543953
1314365342.56527615,0.45911109,0.05783990,-0.40608191
1314365342.61253953,0.46113986,0.05962961,-0.40665582
1314365342.66552329,0.45879832,0.06083776,-0.40856615
1314365342.71355748,0.46121594,0.06051679,-0.40530077
1314365342.76539826,0.46001530,0.05706868,-0.40724495
1314365342.81345558,0.45932874,0.05913642,-0.40689346
1314365342.86543345,0.46045586,0.05961070,-0.40425232
1314365342.91350389,0.45981333,0.05692857,-0.40603405
1314365342.96456981,0.46061671,0.05896076,-0.40396655
1314365343.01653886,0.46001065,0.05691575,-0.40507227
1314365343.06331968,0.46132159,0.06052154,-0.40583757
1314365343.11336184,0.45917055,0.05976084,-0.40487140
1314365343.16466761,0.45905077,0.05767264,-0.40255502
1314365343.21736026,0.46081248,0.05840795,-0.40082902
1314365343.26698017,0.46001855,0.05830628,-0.40250337
1314365343.31345153,0.46036625,0.05687260,-0.40152207
1314365343.36455417,0.46011597,0.06037377,-0.40292057
